Regional Weather Roundup
Issued by NWS Austin/San Antonio, TX

Home | Current Version | Previous Version | Text Only | Print | Product List | Glossary On
Versions: 1 2 3 4 5 6 7 8 9 10 11 12 13 14 15 16 17 18 19 20 21 22 23 24 25 26 27 28 29 30 31 32 33 34 35 36 37 38 39 40 41 42 43 44 45 46 47 48 49 50
282
ASUS44 KEWX 210102
RWREWX
SOUTH TEXAS REGIONAL WEATHER ROUNDUP
NATIONAL WEATHER SERVICE AUSTIN/SAN ANTONIO TX
800 PM CDT SUN OCT 20 2019

NOTE: "FAIR" INDICATED FEW OR NO CLOUDS BELOW 12,000 FEET WITH NO
SIGNIFICANT WEATHER AND/OR OBSTRUCTIONS TO VISIBILITY.

* - THESE STATIONS ARE NOT NWS OR FAA STATIONS...AND ARE NOT SUBJECT
    TO NWS AND FAA QUALITY CONTROL.

TXZ171-172-183>190-210200-
TEXAS HILL COUNTRY AND EDWARDS PLATEAU

CITY           SKY/WX    TMP DP  RH WIND       PRES   REMARKS
JUNCTION       LGT RAIN  84  66  54 S12G20    29.70R
*LLANO         CLEAR     84  66  54 S7        29.71R
BURNET         CLEAR     82  65  56 S9        29.71R
*HORSESHOE BAY CLEAR     82  66  57 S5        29.69S
*KERRVILLE     PTCLDY    79  69  71 CALM      29.73R
*FREDERICKSBRG CLEAR     78  65  65 CALM      29.73R
*ROCKSPRINGS   CLEAR     79  66  65 SE8       29.78S
*BOERNE        CLEAR     79  68  69 CALM      29.72S
*CASTROVILLE   PTCLDY    86  67  52 SE13G18   29.69S
HONDO          LGT RAIN  83  72  69 SE12      29.67S
*UVALDE        PTCLDY    83  71  66 CALM      29.68R
DEL RIO        CLEAR     89  65  44 SE10      29.62R HX  91
LAUGHLIN AFB   CLEAR     83  66  56 SE8       29.63R
SPOFFORD       CLEAR     83  67  59 SE7       29.59R
*EAGLE PASS    CLEAR     88  64  45 SE6       29.64R
CARRIZO SPRGS  CLEAR     88  68  51 S12       29.66R HX  91
*FAITH RANCH   CLEAR     86  70  58 SE16G23   29.67R HX  90
$$

TXZ173-191>194-202-209-217>225-228-210200-
CENTRAL AND SOUTH CENTRAL TEXAS

CITY           SKY/WX    TMP DP  RH WIND       PRES   REMARKS
GEORGETOWN     PTCLDY    85  72  65 S15G26    29.69R HX  91
AUSTIN/BERGSTM LGT RAIN  78  72  81 S15G25    29.69R
AUSTIN/MABRY   PTCLDY    83  68  60 S7G20     29.70R
*AUSTIN/EXEC   PTCLDY    77  68  73 S9G17     29.70R
*LAGO VISTA    MOCLDY    82  68  62 S8        29.71R
SAN MARCOS     PTCLDY    80  72  76 SE13      29.70R
NEW BRAUNFELS  CLEAR     84  73  69 S18       29.69R HX  90
RANDOLPH AFB   PTCLDY    83  74  75 S17       29.70R HX  90
SEGUIN         MOCLDY    81  73  78 SE12      29.74R
KELLY FIELD    PTCLDY    86  74  67 SE18      29.66R HX  93
SAN ANTONIO    MOCLDY    84  74  71 SE23      29.68S THUNDER HX  91
STINSON FIELD  MOCLDY    83  75  77 SE12      29.67R HX  90
PLEASANTON     CLEAR     84  72  66 S15G21    29.67S HX  90
*LA GRANGE     MOCLDY    84  76  75 S13G26    29.70R HX  93
*GIDDINGS      PTCLDY    85  75  71 S8G16     29.71R HX  94
*GONZALES      PTCLDY    83  75  77 SE15      29.70R
$$

TXZ163>164-176>182-195>201-210>213-226-227-235-210200-
SOUTHEAST TEXAS

CITY           SKY/WX    TMP DP  RH WIND       PRES   REMARKS
COLLEGE STN    CLEAR     85  73  67 S21G26    29.70R HX  91
*BRYAN         CLEAR     85  74  70 S18G25    29.72R HX  92
*CALDWELL      CLEAR     83  73  72 S18G28    29.71R
*CROCKETT      CLEAR     81  73  78 S12       29.73S
*BRENHAM       CLEAR     83  74  73 S16G24    29.72R HX  90
HUNTSVILLE     CLEAR     83  71  67 VRB7      29.72R
CONROE         CLEAR     81  72  74 S14G23    29.74S
HOUSTON BUSH   PTCLDY    82  73  74 S13G20    29.75S
HOUSTON HOBBY  MOCLDY    81  74  79 S9        29.77R
*HOUSTON SW AP FAIR      79  75  89 CALM      29.78R
PEARLAND       FAIR      82  75  79 S7        29.78R
HOUSTON HOOKS  FAIR      82  72  71 S10G20    29.74R
ELLINGTON FLD  NOT AVBL
SUGAR LAND     MOCLDY    81  76  84 S12       29.76R
*HOUSTON EXEC  FAIR      81  75  83 S14       29.76R
*CLEVELAND MUN FAIR      79  76  91 S8        29.77R
*WHARTON       MOCLDY    80  74  81 S13       29.77R
*COLUMBUS      CLOUDY    79  71  76 S13G18    29.75R
*EAGLE LAKE    PTCLDY    82  77  83 S13G20    29.75R HX  91
$$

TXZ214>216-236>238-210200-
THE UPPER TEXAS COAST

CITY           SKY/WX    TMP DP  RH WIND       PRES   REMARKS
*ORANGE        FAIR      80  79  98 S8        29.82R
PORT ARTHUR    FAIR      79  76  90 S8        29.79R
GALVESTON      FAIR      82  78  88 S14       29.78S HX  91
ANGLETON       FAIR      81  75  82 S13       29.77R
*BAY CITY      PTCLDY    82  79  89 S8        29.77R HX  92
PALACIOS       PTCLDY    82  76  81 SE14      29.75R
$$

TXZ229>234-239>247-210200-
TEXAS COASTAL BEND AND RIO GRANDE PLAINS

CITY           SKY/WX    TMP DP  RH WIND       PRES   REMARKS
VICTORIA       MOCLDY    82  77  84 S16       29.74R HX  90
*BEEVILLE      MOCLDY    85  78  79 SE12      29.71R HX  95
ROCKPORT       CLEAR     84  77  79 SE10      29.72S HX  94
*PORT ARANSAS  CLOUDY    82  79  90 S13       29.74S HX  91
*PORT LAVACA   MOCLDY    83  79  88 SE13      29.74S HX  94
*INGLESIDE     PTCLDY    83  79  88 S10       29.72S HX  94
CORPUS CHRISTI MOCLDY    83  77  82 S17       29.72R HX  92
CORPUS NAS     MOCLDY    82  81  96 S16       29.72S HX  95
*ROBSTOWN      CLEAR     83  76  80 SE18      29.72S HX  91
ALICE          CLEAR     84  76  76 S14       29.70R HX  93
KINGSVILLE NAS CLOUDY    84  77  79 S17G24    29.71R HX  94
COTULLA        CLEAR     88  70  55 S16G24    29.66R HX  93
LAREDO         CLEAR     86  72  62 S15       29.68R HX  92
$$

TXZ248>255-210200-
DEEP SOUTH TEXAS

CITY           SKY/WX    TMP DP  RH WIND       PRES   REMARKS
BROWNSVILLE    FAIR      82  78  88 SE13      29.71F FOG     HX  91
PORT ISABEL    FAIR      82  78  88 SE13      29.72S HX  91
HARLINGEN      MOCLDY    81  79  94 SE9       29.71S HX  90
*HEBBRONVILLE  MOCLDY    83  71  66 S6G17     29.71S
MCALLEN        MOCLDY    83  77  82 SE13      29.72R HX  92
*WESLACO       CLOUDY    81  77  88 S10G16    29.72
FALFURRIAS     PTCLDY    86  76  71 SE10G20   29.71R HX  95
EDINBURG       DRIZZLE   80  76  86 SE12      29.72S
*ZAPATA        NOT AVBL
$$

TXZ213>215-236>238-242>244-246-247-251-254-255-210200-
CMAN STATIONS

STATION/POSITION TIME  TEMP    WIND        PRES    WAVE
                       AIR SEA DIR/SP/G            HT/PER
                 (UTC) (F)     (DEG/KT/KT) (MB)    (FT/S)
SABINE PASS      0024   80 77  160/  9/ 14 1010.6
NORTH JETTY/GLS  0024   81 77  170/ 15/ 17 1007.2
EAGLE POINT      0024   80 78  170/ 11/ 13 1007.4
MORGANS POINT    0030   80 77  150/  7/ 10 1008.0
PORT O`CONNOR    0024   81 82  150/ 15/ 19 1006.6
PORT ARANSAS     0000   81 81  140/ 15/ 16 1006.5
MALAQUITE BEACH  0024   81 82  140/ 16/ 19 1005.9
BAFFIN BAY       0024   81 82  130/ 12/ 17 1006.4
PORT ISABEL      0024   82 81  140/ 14/ 17 1006.7
$$




USA.gov is the U.S. government's official web portal to all federal, state and local government web resources and services.